Tyrone, NM

9:34 PM MDT on August 31, 2016 (GMT -0600)
Grant County

Weather History for KSVC - March, 2013

Change the Weather History Date:

Monday, March 4, 2013

  Actual Average (KDMN) Record (KDMN)
Temperature  
Mean Temperature 50 °F 49 °F  
Max Temperature 64 °F 65 °F 81 °F (1972)
Min Temperature 37 °F 34 °F 10 °F (1965)
Degree Days  
Heating Degree Days 14    
Moisture  
Dew Point 14 °F    
Average Humidity 25    
Maximum Humidity 45    
Minimum Humidity 9    
Precipitation  
Precipitation 0.00 in 0.03 in 0.51 in (1958)
Month to date precipitation 0.09  
Year to date precipitation 1.29  
Sea Level Pressure  
Sea Level Pressure 30.02 in    
Wind  
Wind Speed 13 mph (WNW)    
Max Wind Speed 31 mph    
Max Gust Speed 45 mph    
Visibility 10 miles    
Events      
T = Trace of Precipitation, MM = Missing Value Source: NWS Daily Summary

Daily Weather History Graph

Daily Weather History Graph

Search for Another Location

Airport or City:

Trip Planner

Search our weather history database for the weather conditions in past years. The results will help you decide how hot, cold, wet, or windy it might be!

Date:

Astronomy

Mar. 04, 2013 Rise Set
Actual Time 6:36 AM MST 6:12 PM MST
Civil Twilight 6:11 AM MST 6:37 PM MST
Nautical Twilight 5:43 AM MST 7:05 PM MST
Astronomical Twilight 5:14 AM MST 7:34 PM MST
Moon 12:35 AM MST (3/4) 11:10 AM MST (3/4)
Length of Visible Light 12h 25m
Length of Day
11h 36m
Waning Gibbous, 51% of the Moon is Illuminated
Mar 4
Waning Gibbous
Mar 4
Last Quarter
Mar 11
New
Mar 19
First Quarter
Mar 27
Full

Hourly Weather History & Observations

Time (MST) Temp. Windchill Dew Point Humidity Pressure Visibility Wind Dir Wind Speed Gust Speed Precip Events Conditions
12:15 AM 55.4 °F - 15.8 °F 21% 30.03 in 10.0 mi WNW 8.1 mph - N/A   Mostly Cloudy
12:35 AM 55.4 °F - 15.8 °F 21% 30.02 in 10.0 mi WNW 9.2 mph - N/A   Scattered Clouds
12:55 AM 51.8 °F - 15.8 °F 24% 30.02 in 10.0 mi WNW 8.1 mph - N/A   Mostly Cloudy
1:15 AM 53.6 °F - 15.8 °F 22% 30.02 in 10.0 mi WNW 11.5 mph - N/A   Mostly Cloudy
1:35 AM 51.8 °F - 15.8 °F 24% 30.01 in 10.0 mi West 9.2 mph - N/A   Mostly Cloudy
1:55 AM 48.2 °F - 15.8 °F 27% 30.01 in 10.0 mi WNW 6.9 mph - N/A   Scattered Clouds
2:15 AM 46.4 °F 42.9 °F 15.8 °F 29% 30.00 in 10.0 mi WNW 6.9 mph - N/A   Partly Cloudy
2:35 AM 46.4 °F 42.9 °F 15.8 °F 29% 30.00 in 10.0 mi NW 6.9 mph - N/A   Partly Cloudy
2:55 AM 42.8 °F 38.6 °F 15.8 °F 34% 30.00 in 10.0 mi NW 6.9 mph - N/A   Mostly Cloudy
3:15 AM 46.4 °F 42.9 °F 17.6 °F 32% 29.99 in 10.0 mi NW 6.9 mph - N/A   Overcast
3:35 AM 44.6 °F 40.2 °F 17.6 °F 34% 29.99 in 10.0 mi NW 8.1 mph - N/A   Mostly Cloudy
4:15 AM 41.0 °F 36.4 °F 15.8 °F 36% 29.99 in 10.0 mi WNW 6.9 mph - N/A   Clear
4:55 AM 39.2 °F 33.0 °F 15.8 °F 39% 29.99 in 10.0 mi NW 9.2 mph - N/A   Partly Cloudy
5:15 AM 37.4 °F 31.4 °F 14.0 °F 38% 29.99 in 10.0 mi WNW 8.1 mph - N/A   Partly Cloudy
5:35 AM 41.0 °F 35.2 °F 15.8 °F 36% 29.99 in 10.0 mi WNW 9.2 mph - N/A   Partly Cloudy
5:55 AM 39.2 °F 32.5 °F 14.0 °F 36% 30.00 in 10.0 mi NW 10.4 mph - N/A   Clear
6:15 AM 39.2 °F 32.5 °F 14.0 °F 36% 30.00 in 10.0 mi NW 10.4 mph - N/A   Clear
6:35 AM 39.2 °F 33.0 °F 14.0 °F 36% 29.99 in 10.0 mi West 9.2 mph - N/A   Clear
6:55 AM 51.8 °F - 6.8 °F 16% 29.99 in 10.0 mi West 9.2 mph - N/A   Scattered Clouds
7:15 AM 50.0 °F - 8.6 °F 19% 30.00 in 10.0 mi West 10.4 mph - N/A   Partly Cloudy
7:35 AM 53.6 °F - 6.8 °F 15% 29.99 in 10.0 mi West 12.7 mph - N/A   Partly Cloudy
7:55 AM 55.4 °F - 10.4 °F 17% 30.00 in 10.0 mi WSW 13.8 mph - N/A   Mostly Cloudy
8:15 AM 57.2 °F - 10.4 °F 16% 30.00 in 10.0 mi West 17.3 mph 25.3 mph N/A   Partly Cloudy
8:35 AM 57.2 °F - 10.4 °F 16% 30.00 in 10.0 mi West 16.1 mph 26.5 mph N/A   Clear
8:55 AM 59.0 °F - 3.2 °F 11% 29.99 in 10.0 mi West 21.9 mph 32.2 mph N/A   Clear
9:15 AM 59.0 °F - 1.4 °F 10% 29.99 in 10.0 mi West 23.0 mph 33.4 mph N/A   Clear
9:35 AM 60.8 °F - 1.4 °F 9% 29.98 in 10.0 mi West 23.0 mph 34.5 mph N/A   Clear
9:55 AM 62.6 °F - 1.4 °F 9% 29.98 in 10.0 mi West 27.6 mph 40.3 mph N/A   Clear
10:15 AM 62.6 °F - 1.4 °F 9% 29.98 in 10.0 mi West 26.5 mph 39.1 mph N/A   Clear
10:35 AM 62.6 °F - 5.0 °F 10% 29.97 in 10.0 mi West 21.9 mph 36.8 mph N/A   Clear
10:55 AM 64.4 °F - 6.8 °F 10% 29.97 in 10.0 mi West 20.7 mph 38.0 mph N/A   Clear
11:55 AM 64.4 °F - 10.4 °F 12% 29.96 in 10.0 mi West 24.2 mph 40.3 mph N/A   Clear
12:15 PM 64.4 °F - 12.2 °F 13% 29.95 in 10.0 mi West 31.1 mph 40.3 mph N/A   Clear
12:55 PM 64.4 °F - 14.0 °F 14% 29.94 in 10.0 mi West 24.2 mph 35.7 mph N/A   Clear
1:15 PM 64.4 °F - 15.8 °F 15% 29.94 in 10.0 mi WNW 20.7 mph 40.3 mph N/A   Clear
1:35 PM 64.4 °F - 15.8 °F 15% 29.94 in 10.0 mi WNW 27.6 mph 40.3 mph N/A   Clear
1:55 PM 64.4 °F - 14.0 °F 14% 29.94 in 10.0 mi West 21.9 mph 38.0 mph N/A   Partly Cloudy
2:55 PM 64.4 °F - 17.6 °F 16% 29.94 in 10.0 mi West 25.3 mph 44.9 mph N/A   Clear
3:15 PM 64.4 °F - 17.6 °F 16% 29.94 in 10.0 mi West 31.1 mph 41.4 mph N/A   Clear
3:55 PM 64.4 °F - 17.6 °F 16% 29.96 in 10.0 mi West 25.3 mph 43.7 mph N/A   Partly Cloudy
4:15 PM 62.6 °F - 19.4 °F 19% 29.97 in 10.0 mi WNW 26.5 mph 34.5 mph N/A   Partly Cloudy
4:35 PM 60.8 °F - 19.4 °F 20% 29.98 in 9.0 mi WNW 20.7 mph 27.6 mph N/A   Partly Cloudy
4:55 PM 60.8 °F - 21.2 °F 22% 29.99 in 10.0 mi West 25.3 mph 40.3 mph N/A   Scattered Clouds
5:15 PM 60.8 °F - 21.2 °F 22% 30.00 in 10.0 mi WNW 25.3 mph 33.4 mph N/A   Partly Cloudy
5:35 PM 59.0 °F - 21.2 °F 23% 30.01 in 10.0 mi WNW 20.7 mph 29.9 mph N/A   Partly Cloudy
5:55 PM 57.2 °F - 23.0 °F 27% 30.03 in 10.0 mi WNW 23.0 mph 28.8 mph N/A   Clear
6:15 PM 55.4 °F - 19.4 °F 25% 30.04 in 10.0 mi WNW 16.1 mph 27.6 mph N/A   Clear
6:35 PM 53.6 °F - 19.4 °F 26% 30.05 in 10.0 mi WNW 13.8 mph - N/A   Clear
6:55 PM 51.8 °F - 17.6 °F 26% 30.06 in 10.0 mi WNW 11.5 mph - N/A   Clear
7:15 PM 48.2 °F - 17.6 °F 30% 30.07 in 10.0 mi NW 9.2 mph - N/A   Clear
7:35 PM 48.2 °F - 17.6 °F 30% 30.07 in 10.0 mi NW 11.5 mph - N/A   Clear
7:55 PM 46.4 °F 41.5 °F 17.6 °F 32% 30.08 in 10.0 mi NNW 10.4 mph - N/A   Clear
8:35 PM 46.4 °F 43.5 °F 17.6 °F 32% 30.11 in 10.0 mi NW 5.8 mph - N/A   Clear
8:55 PM 44.6 °F 40.2 °F 17.6 °F 34% 30.12 in 10.0 mi North 8.1 mph - N/A   Clear
9:15 PM 42.8 °F 37.5 °F 17.6 °F 36% 30.12 in 10.0 mi NNW 9.2 mph - N/A   Clear
9:35 PM 37.4 °F 31.4 °F 15.8 °F 41% 30.14 in 10.0 mi NNW 8.1 mph - N/A   Clear
9:55 PM 41.0 °F 34.3 °F 17.6 °F 39% 30.14 in 10.0 mi WNW 11.5 mph - N/A   Clear
10:15 PM 39.2 °F 33.6 °F 17.6 °F 42% 30.15 in 10.0 mi NW 8.1 mph - N/A   Clear
10:35 PM 37.4 °F 30.8 °F 17.6 °F 45% 30.16 in 10.0 mi NW 9.2 mph - N/A   Clear
10:55 PM 39.2 °F 32.5 °F 17.6 °F 42% 30.16 in 10.0 mi NNW 10.4 mph - N/A   Clear
11:35 PM 37.4 °F 33.8 °F 17.6 °F 45% 30.17 in 10.0 mi North 4.6 mph - N/A   Clear
11:55 PM 39.2 °F 31.6 °F 17.6 °F 42% 30.17 in 10.0 mi NW 12.7 mph - N/A   Clear